DELTA 1 DEB, 10714

Orbit data source: Space-Track

DELTA 1 DEB, 10714 is space debris in LEO originally from a launch on Thu, 29 Jul 1976 UTC launched from the Air Force Western Test Range (AFWTR). Debris objects in space refer to the collection of defunct objects orbiting the Earth. Examples of debris include non-operational satellites, rocket bodies, and fragments generated from explosions, collisions, or faulty payload assembly.

Loading next visibility...
Identifier
10714, 1976-077AK
Orbit
LEO
Last TLE update
2 days ago
Origin
Manufacturer
Unknown
Mission
Spacecraft
Bus & Motor
Unknown
Mass
Unknown
Launch date (UTC)
1976-07-29 (49 years ago)
Launch vehicle
Unknown
Launch site
Air Force Western Test Range (AFWTR)
Object type
Payload
Rocket body
Debris
Shape & HBR
Unknown
Radar Cross Section
Medium (>0.1 m² and <1 m²)

Expand to show TLE details & history

TLE from 2 days ago
0 DELTA 1 DEB
1 10714U 76077AK  25180.74257094  .00001653  00000-0  24075-1 0  9998
2 10714 103.3555  97.3277 0583870 136.1410 290.1284 11.53885080 52371
Epoch: 2025-06-29T17:49Z
TLE epoch observation values (Epoch: 2025-06-29T17:49:18.129Z)
Latitude
57.36315°
Longitude
-109.71052°
Altitude
1,762.856 km
Speed
7.063 km/s
True Right ascension
05h 02m 42s
True Declination
57° 13' 34"
Sunlit
Object was in daylight at epoch
Visualization orbit readout
Latitude
76.20194°
Longitude
167.62658°
Altitude
1,525.43 km
Speed
7.272 km/s
Apparent Right ascension
07h 58m 20s
Apparent Declination
45° 24' 39"
Sunlit
Object is in daylight
Visualization observer readout
Local Sidereal Time
21:10:31
Azimuth
12.582° NNE
Elevation
-3.151°
Doppler factor
1
Orbital elements
Apogee altitude
2,374.796 km
Perigee altitude
1,409.067 km
Semi-major axis
8,270.068 km
Eccentricity
0.05839
Inclination
103.3555°
RAAN
97.3277°
Arg. of periapsis
136.141°
True anomaly
Unknown
Mean anomaly
290.1284°
Eccentric anomaly
Unknown
Mean motion
2.88589 °/min
Orbital period
124.74 mins
BSTAR
0.024075
Loading maneuver chart data...
Loading SW <> Apogee altitude chart data...
Loading historical data...
Loading historical data...
Loading historical data...
Loading historical data...
Loading historical data...
Loading historical data...
Loading historical data...

DELTA 1 DEB Visibility forecast

Observer location: undefined°, undefined°

Span
Click to sort rows by Start time (UTC) header in descending order
Start Az.
Max El. time (UTC)
Max El. Az.
Max El.
End time (UTC)
End Az.
9 mins2025-07-01 09:38:13.902Z347.619° N2025-07-01 09:42:13.902Z314.664° NW18.139°2025-07-01 09:47:13.902Z273.187° WNW
8 mins2025-07-01 15:31:13.902Z67.254° ENE2025-07-01 15:35:13.902Z40.944° NE14.941°2025-07-01 15:39:13.902Z14.004° NNE
18 mins2025-07-01 17:26:13.902Z138.833° SSE2025-07-01 17:35:13.902Z63.327° ENE41.621°2025-07-01 17:44:13.902Z347.232° N
16 mins2025-07-01 19:29:13.902Z203.326° SW2025-07-01 19:37:13.902Z257.732° W29.433°2025-07-01 19:45:13.902Z319.137° NNW
12 mins2025-07-02 06:30:13.902Z43.942° NE2025-07-02 06:35:13.902Z94.589° ESE30.285°2025-07-02 06:42:13.902Z162.431° S
13 mins2025-07-02 08:32:13.902Z2.518° NNE2025-07-02 08:38:13.902Z295.039° NW34.872°2025-07-02 08:45:13.902Z231.753° WSW
|